Preview of NWS' New Version of Forecast
This preview is not operational and should not be used for support decisions.

Regional Weather Roundup (RWR)

Issued by National Weather Service (NWS)

                            
000
ASUS45 KCYS 182210
RWRWY 

WYOMING REGIONAL WEATHER ROUNDUP
NATIONAL WEATHER SERVICE CHEYENNE WY
400 PM MDT TUE JUN 18 2019

NOTE:  "FAIR" INDICATES FEW OR NO CLOUDS BELOW 12,000 FEET
WITH NO SIGNIFICANT WEATHER AND/OR OBSTRUCTIONS TO VISIBILITY.

WYZ001-182300-
...YELLOWSTONE NATIONAL PARK...
  
CITY           SKY/WX    TMP DP  RH WIND       PRES   REMARKS
LK YELLOWSTONE NOT AVBL                                               
W YELLOWSTONE  NOT AVBL                                               

$$
WYZ002>013-054>058-071-098>099-182300-
...NORTHERN WYOMING...
  
CITY           SKY/WX    TMP DP  RH WIND       PRES   REMARKS
JACKSON        PTSUNNY   69  42  37 VRB6      30.10F                  
CODY           PTSUNNY   71  50  47 N10       29.97F                  
GREYBULL       MOSUNNY   81  42  25 VRB3      29.88F                  
WORLAND        MOSUNNY   78  42  27 NW5       29.91F                  
SHERIDAN       MOSUNNY   75  50  41 W7        29.92F                  
BUFFALO        PTSUNNY   71  48  43 NW13      29.97F                  
GILLETTE       MOSUNNY   71  51  49 SE9       29.93F                  
HULETT         NOT AVBL                                               
NEWCASTLE      FAIR      61  50  67 S8        29.99S                  

$$
WYZ014>020-022>026-101>103-182300-
...CENTRAL WYOMING...
  
CITY           SKY/WX    TMP DP  RH WIND       PRES   REMARKS
BIG PINEY      PTSUNNY   61  41  47 NW31G43   30.15R                  
PINEDALE       PTSUNNY   68  34  28 NW16G24   30.14S                  
DUBOIS         PTSUNNY   64  32  29 N12G22    30.09F                  
LANDER         MOSUNNY   75  44  33 VRB3      29.96F                  
RIVERTON       SUNNY     74  45  35 SE3       29.98F                  
CASPER         CLOUDY    63  53  70 S5        30.00F                  
DOUGLAS        TSTM      58  53  84 SE10      30.02R                  

$$
WYZ021-027>030-104>119-182300-
...SOUTHERN WYOMING...
  
CITY           SKY/WX    TMP DP  RH WIND       PRES   REMARKS
EVANSTON       SUNNY     69  36  29 W23G30    30.17F                  
KEMMERER       SUNNY     70  41  35 NW17G25   30.17R                  
FORT BRIDGER   FAIR      70  41  35 W5        30.17F                  
ROCK SPRINGS   MOSUNNY   62  46  55 W13       30.12F                  
DIXON          PTSUNNY   70  42  36 S15G21    30.09F                  
RAWLINS        CLOUDY    57  46  66 E3        30.10F                  
SARATOGA       PTSUNNY   61  39  44 NW21G32   30.14R                  
LARAMIE        LGT RAIN  52  45  77 VRB5      30.13S                  
CHEYENNE       CLOUDY    52  48  86 CALM      30.10F                  
TORRINGTON     LGT RAIN  58  54  86 NE14      29.99R                  
PINE BLUFFS    HVY RAIN  54  52  94 NW10G16   30.07R                  

$$